Location: Newark
(44.4500°N, 0.0833°W)
Time: 11:10:53
(UTC+00:00)

ISS - Visible Passes

Search period start: 16 December 2019 00:00
Search period end: 26 December 2019 00:00
Orbit: 411 x 421 km, 51.6° (Epoch: 16 December)

Date Brightness Start Highest point End Pass type
(mag) Time Alt. Az. Time Alt. Az. Time Alt. Az.
19 Dec -0.5 06:55:08 10° S 06:57:11 15° SE 06:59:15 10° E visible
21 Dec -2.2 06:53:26 10° SSW 06:56:32 38° SE 06:59:41 10° ENE visible
22 Dec -1.3 06:05:25 10° SSW 06:08:07 23° SE 06:10:50 10° E visible
23 Dec -0.7 05:17:52 10° SSE 05:19:44 14° SE 05:21:37 10° E visible
23 Dec -3.8 06:52:44 10° WSW 06:56:04 84° NNW 06:59:23 10° ENE visible
24 Dec -3.3 06:04:34 12° SW 06:07:30 60° SE 06:10:47 10° ENE visible
25 Dec -2.4 05:18:52 35° SE 05:19:00 35° SE 05:22:04 10° ENE visible
25 Dec -3.3 06:52:31 10° W 06:55:42 41° NNW 06:58:52 10° NE visible
